Location: Kapasiwin
(53.5500°N, 114.4500°W)
Time: 19:53:34
(UTC+00:00)

X-37B - Pass Details

Date: 10 December 2021
Orbit: 334 x 337 km, 45.0° (Epoch: 11 January)

Event Time Altitude Azimuth Distance (km) Brightness Sun altitude
Rises 01:29:32 0° 221° (SW) 2,099 5.2 -18.1°
Reaches altitude 10° 01:32:36 10° 183° (S) 1,265 3.4 -18.6°
Enters shadow 01:33:20 11° 168° (SSE) 1,202 3.1 -18.7°
